sat.trackr.live / text

‹ back to catalog

STARLINK-35178

NORAD 65610 · 2025-207U

PAYLOAD ACTIVE UNKNOWN

§ Identity

Operator
Country
US
Launch date
2025-09-13
Launch site
AFWTR
Launch vehicle
Mass (kg)
RCS (m²)

Purposes: comms

External: N2YO · Heavens-Above · Gunter

§ Orbital elements

Epoch: 2026-09-20T22:00:03.000096Z

Period
93.91 min
Inclination
97.2855°
Eccentricity
0.0001536
Mean motion
15.33460832 rev/d
Perigee alt
464.4 km
Apogee alt
466.5 km
Semi-major
6,843.6 km
B*
-5.9062e-4
RAAN
326.4601°
Arg perigee
89.5191°
Mean anomaly
250.9569°
Rev number
574

§ Raw data

STARLINK-351781 65610U 25207U   26263.91670139 -.00019105  00000+0 -59062-3 0  99912 65610  97.2855 326.4601 0001536  89.5191 250.9569 15.33460832  5743

JSON: /api/v1/satellites/65610 · /tle

For live sub-satellite position, see the globe view (requires WebGL).

§ Visibility from observer

Set your observer location to see the next 7 days of passes ≥ 10°. The values pass through the URL so the page stays shareable.

No JS? Fill the form by hand. The geolocation button needs JavaScript.